GSAT0213 (GALILEO 17)

Last updated on Thu Jul 03 2025 00:02:33 GMT+0000 (Coordinated Universal Time)

1 41861U 16069C 25182.77667857 -.00000014 00000+0 00000+0 0 9997 2 41861 55.2842 110.7962 0004596 303.5857 56.3561 1.70474365 53549
UTC large
Height (km)
Speed (km/s)
/
Latitude / Longitude
Inclination (degrees)
Orbital Period (minutes)
Azimuth
Elevation
Range (km)
Doppler Factor

Next 0 passes for location: London (51.5072 / 0.1276)

Sorry there are no passes over London.